Location: Grandview
(34.8900°N, 117.1058°W)
Time: 21:05:59
(UTC-07:00)

Vanguard 2 - All Passes

Search period start: 23 October 2017 00:00
Search period end: 02 November 2017 00:00
Orbit: 553 x 2939 km, 32.9° (Epoch: 23 October)

Date Brightness Start Highest point End Pass type
(mag) Time Alt. Az. Time Alt. Az. Time Alt. Az.
23 Oct - 04:24:21 10° S 04:36:04 22° SE 04:46:53 10° E visible
23 Oct - 06:30:55 10° SW 06:47:27 48° SSE 07:00:00 10° E visible
23 Oct - 08:42:45 10° WSW 08:59:05 74° SSE 09:09:24 10° E daylight
23 Oct - 10:56:39 10° W 11:09:55 79° S 11:17:35 10° ESE daylight
23 Oct - 13:10:06 10° W 13:18:58 43° SSW 13:24:31 10° SE daylight
24 Oct - 04:40:15 10° SSW 04:54:05 29° SE 05:06:38 10° E visible
24 Oct - 06:48:33 10° SW 07:05:42 57° SSE 07:18:24 10° E daylight
24 Oct - 09:01:10 10° WSW 09:17:26 79° S 09:27:34 10° E daylight
24 Oct - 11:15:13 10° W 11:28:09 74° SSW 11:35:39 10° ESE daylight
24 Oct - 13:28:48 10° W 13:36:45 32° SW 13:42:00 10° SSE daylight
25 Oct - 02:56:43 10° SSE 03:01:18 11° SE 03:05:53 10° ESE visible
25 Oct - 04:56:51 10° SSW 05:12:08 37° SE 05:25:46 10° E visible
25 Oct - 07:06:27 10° WSW 07:23:59 65° SSE 07:36:43 10° E daylight
25 Oct - 09:19:41 10° W 09:35:49 82° S 09:45:44 10° E daylight
25 Oct - 11:33:46 10° W 11:46:18 65° SSW 11:53:36 10° ESE daylight
25 Oct - 13:47:45 10° W 13:54:24 23° SW 13:59:07 10° S daylight
26 Oct - 03:09:24 10° S 03:19:11 18° SE 03:29:04 10° E visible
26 Oct - 05:13:55 10° SW 05:30:12 45° SSE 05:44:31 10° E visible
26 Oct - 07:24:35 10° WSW 07:42:19 73° SSE 07:54:58 10° E daylight
26 Oct - 09:38:16 10° W 09:54:11 82° S 10:03:53 10° E daylight
26 Oct - 11:52:21 10° W 12:04:19 55° SSW 12:11:27 10° SE daylight
26 Oct - 14:07:18 10° W 14:11:55 16° SW 14:15:34 10° S daylight
27 Oct - 03:24:43 10° S 03:37:01 25° SE 03:49:32 10° E visible
27 Oct - 05:31:21 10° SW 05:48:21 54° SSE 06:03:04 10° E visible
27 Oct - 07:42:55 10° WSW 08:00:42 78° S 08:13:12 10° E daylight
27 Oct - 09:56:51 10° W 10:12:30 79° S 10:22:00 10° ESE daylight
27 Oct - 12:10:58 10° W 12:22:13 45° SSW 12:29:06 10° SE daylight
28 Oct - 03:40:59 10° SSW 03:54:52 33° SE 04:09:03 10° E visible
28 Oct - 05:49:04 10° SW 06:06:34 62° SSE 06:21:27 10° E visible
28 Oct - 08:01:21 10° W 08:19:07 82° S 08:31:26 10° E daylight
28 Oct - 10:15:26 10° W 10:30:46 73° SSW 10:40:03 10° ESE daylight
28 Oct - 12:29:44 10° W 12:39:56 35° SW 12:46:32 10° SSE daylight
29 Oct - 01:56:24 10° SSE 02:02:33 13° SE 02:09:03 10° ESE visible
29 Oct - 03:57:48 10° SSW 04:12:47 41° SE 04:28:03 10° E visible
29 Oct - 06:07:03 10° WSW 06:24:51 70° SSE 06:39:48 10° E visible
29 Oct - 08:19:52 10° W 08:37:34 83° S 08:49:38 10° E daylight
29 Oct - 10:34:00 10° W 10:48:55 65° SSW 10:57:59 10° ESE daylight
29 Oct - 12:48:46 10° W 12:57:31 26° SW 13:03:35 10° S daylight
30 Oct - 02:10:25 10° S 02:20:13 20° SE 02:31:01 10° E visible
30 Oct - 04:15:03 10° SW 04:30:45 49° SSE 04:46:47 10° E visible
30 Oct - 06:25:13 10° WSW 06:43:14 76° SSE 06:58:07 10° E visible
30 Oct - 08:38:24 10° W 08:56:00 82° S 09:07:49 10° E daylight
30 Oct - 10:52:36 10° W 11:06:57 56° SSW 11:15:48 10° SE daylight
30 Oct - 13:08:22 10° W 13:14:59 18° SW 13:20:02 10° S daylight
31 Oct - 02:26:10 10° S 02:37:52 27° SE 02:51:10 10° E visible
31 Oct - 04:32:36 10° SW 04:48:51 58° SSE 05:05:19 10° E visible
31 Oct - 06:43:31 10° WSW 07:01:40 81° S 07:16:23 10° E visible
31 Oct - 08:56:59 10° W 09:14:22 78° SSW 09:25:57 10° ESE daylight
31 Oct - 11:11:17 10° W 11:24:48 46° SSW 11:33:23 10° SE daylight
31 Oct - 13:29:38 10° WSW 13:32:22 11° SW 13:34:48 10° SW daylight
01 Nov - 02:42:41 10° SSW 02:55:34 35° SE 03:10:33 10° E visible
01 Nov - 04:50:23 10° SW 05:07:02 66° SSE 05:23:44 10° E visible
01 Nov - 07:01:57 10° W 07:20:09 83° S 07:34:40 10° E daylight
01 Nov - 09:15:32 10° W 09:32:39 72° SSW 09:44:00 10° ESE daylight
01 Nov - 11:30:06 10° W 11:42:31 36° SW 11:50:44 10° SSE daylight
